Change the Weather History Date:

Monday, February 11, 2013

  Actual Average Record
Temperature  
Mean Temperature 22 °F -  
Max Temperature 35 °F 29 °F 53 °F (1981)
Min Temperature 10 °F 3 °F -27 °F (1958)
Degree Days  
Heating Degree Days 42    
Moisture  
Dew Point 16 °F    
Average Humidity 67    
Maximum Humidity 93    
Minimum Humidity 29    
Precipitation  
Precipitation 0.00 in - - ()
Sea Level Pressure  
Sea Level Pressure 29.83 in    
Wind  
Wind Speed 8 mph (South)    
Max Wind Speed 20 mph    
Max Gust Speed 28 mph    
Visibility 8 miles    
Events Snow    
Averages and records for this station are not official NWS values.
T = Trace of Precipitation, MM = Missing Value Source: NWS Daily Summary

Daily Weather History Graph

Daily Weather History Graph

Search for Another Location

Airport or City:

Trip Planner

Search our weather history database for the weather conditions in past years. The results will help you decide how hot, cold, wet, or windy it might be!

Date:

Astronomy

Feb. 11, 2013 Rise Set
Actual Time 6:55 AM EST 5:11 PM EST
Civil Twilight 6:24 AM EST 5:42 PM EST
Nautical Twilight 5:50 AM EST 6:16 PM EST
Astronomical Twilight 5:16 AM EST 6:50 PM EST
Moon 7:11 AM EST (2/11) 7:13 PM EST (2/11)
Length of Visible Light 11h 17m
Length of Day
10h 16m
Waxing Crescent, 3% of the Moon is Illuminated
Feb 11
Waxing Crescent
Feb 17
First Quarter
Feb 25
Full
Mar 4
Last Quarter
Mar 11
New

Hourly Weather History & Observations

Time (EST) Temp. Windchill Dew Point Humidity Pressure Visibility Wind Dir Wind Speed Gust Speed Precip Events Conditions
12:15 AM 14.2 °F 5.3 °F 0.3 °F 54% 30.23 in 10.0 mi South 5.8 mph - N/A   Clear
12:35 AM 13.8 °F 6.2 °F 0.1 °F 55% 30.23 in 10.0 mi South 4.6 mph - N/A   Clear
12:55 AM 10.6 °F 4.3 °F -0.4 °F 61% 30.21 in 10.0 mi South 3.5 mph - N/A   Clear
1:15 AM 11.3 °F 1.9 °F -0.0 °F 60% 30.20 in 10.0 mi SW 5.8 mph - N/A   Clear
1:35 AM 10.6 °F -1.3 °F 0.1 °F 63% 30.18 in 10.0 mi SW 8.1 mph - N/A   Clear
1:55 AM 11.1 °F 1.7 °F 0.1 °F 61% 30.18 in 10.0 mi SW 5.8 mph - N/A   Clear
2:15 AM 12.7 °F 5.0 °F 0.1 °F 57% 30.17 in 10.0 mi SW 4.6 mph - N/A   Clear
2:35 AM 10.6 °F 1.0 °F 0.1 °F 63% 30.16 in 10.0 mi South 5.8 mph - N/A   Clear
2:55 AM 10.8 °F 0.0 °F -0.4 °F 61% 30.15 in 10.0 mi SW 6.9 mph - N/A   Clear
3:15 AM 10.8 °F 1.2 °F 0.3 °F 63% 30.14 in 10.0 mi South 5.8 mph - N/A   Clear
3:35 AM 12.7 °F 3.6 °F 0.5 °F 58% 30.12 in 10.0 mi SW 5.8 mph - N/A   Clear
3:55 AM 16.5 °F 8.1 °F 1.6 °F 52% 30.10 in 10.0 mi South 5.8 mph - N/A   Clear
4:15 AM 14.0 °F 5.1 °F 2.3 °F 60% 30.09 in 10.0 mi SSW 5.8 mph - N/A   Scattered Clouds
4:35 AM 16.9 °F 9.8 °F 2.1 °F 52% 30.08 in 10.0 mi SW 4.6 mph - N/A   Mostly Cloudy
4:55 AM 19.6 °F 13.0 °F 3.9 °F 51% 30.06 in 10.0 mi WSW 4.6 mph - N/A   Overcast
5:15 AM 23.5 °F 14.5 °F 1.6 °F 39% 30.04 in 10.0 mi South 8.1 mph - N/A   Overcast
5:35 AM 23.5 °F 15.4 °F 2.5 °F 40% 30.02 in 10.0 mi South 6.9 mph - N/A   Overcast
5:55 AM 24.1 °F 14.4 °F 1.4 °F 38% 30.02 in 10.0 mi South 9.2 mph - N/A   Overcast
6:15 AM 25.0 °F 16.3 °F 1.2 °F 36% 30.01 in 10.0 mi South 8.1 mph - N/A   Overcast
6:35 AM 24.8 °F 14.0 °F 1.0 °F 36% 30.00 in 10.0 mi SSE 11.5 mph - N/A   Overcast
6:55 AM 25.3 °F 16.7 °F -0.6 °F 33% 29.99 in 10.0 mi South 8.1 mph - N/A   Scattered Clouds
7:15 AM 25.9 °F 16.0 °F -0.2 °F 32% 29.98 in 10.0 mi South 10.4 mph - N/A   Mostly Cloudy
7:35 AM 25.3 °F 15.3 °F 1.6 °F 36% 29.98 in 10.0 mi SSW 10.4 mph - N/A   Overcast
7:55 AM 26.1 °F 16.8 °F 1.4 °F 35% 29.97 in 10.0 mi South 9.2 mph - N/A   Overcast
8:15 AM 27.9 °F 17.8 °F -0.9 °F 29% 29.96 in 10.0 mi South 11.5 mph - N/A   Overcast
8:35 AM 28.6 °F 18.7 °F -0.6 °F 29% 29.94 in 10.0 mi South 11.5 mph 21.9 mph N/A   Overcast
8:55 AM 29.1 °F 17.5 °F -0.0 °F 29% 29.92 in 10.0 mi South 16.1 mph 25.3 mph N/A   Overcast
9:15 AM 29.7 °F 18.6 °F 1.2 °F 30% 29.91 in 10.0 mi South 15.0 mph - N/A   Overcast
9:35 AM 30.7 °F 18.5 °F 3.2 °F 31% 29.90 in 10.0 mi South 19.6 mph 27.6 mph N/A   Overcast
9:55 AM 30.4 °F 19.5 °F 3.0 °F 31% 29.89 in 10.0 mi South 15.0 mph 26.5 mph N/A   Overcast
10:15 AM 29.3 °F 17.3 °F 7.2 °F 39% 29.88 in 10.0 mi SSE 17.3 mph 27.6 mph N/A   Overcast
10:35 AM 28.8 °F 16.2 °F 13.8 °F 54% 29.86 in 7.0 mi SSE 18.4 mph 25.3 mph N/A Snow Light Snow
10:55 AM 26.8 °F 14.1 °F 19.2 °F 73% 29.85 in 3.0 mi SSE 17.3 mph 21.9 mph N/A Snow Light Snow
11:15 AM 27.5 °F 14.6 °F 21.2 °F 77% 29.83 in 2.5 mi SSE 18.4 mph 24.2 mph N/A Snow Light Snow
11:35 AM 27.9 °F 15.9 °F 22.8 °F 81% 29.82 in 1.2 mi SSE 16.1 mph 25.3 mph N/A Snow Light Snow
11:55 AM 27.5 °F 16.3 °F 23.5 °F 85% 29.82 in 0.8 mi South 13.8 mph 21.9 mph N/A Snow Light Snow
12:15 PM 28.0 °F 17.0 °F 23.9 °F 84% 29.79 in 1.5 mi South 13.8 mph 23.0 mph N/A Snow Light Snow
12:35 PM 28.8 °F 18.4 °F 24.4 °F 84% 29.77 in 1.8 mi South 12.7 mph 19.6 mph N/A Snow Light Snow
12:55 PM 29.3 °F 20.8 °F 24.8 °F 83% 29.76 in 2.5 mi South 9.2 mph - N/A   Overcast
1:15 PM 30.0 °F 22.4 °F 25.0 °F 82% 29.75 in 7.0 mi South 8.1 mph - N/A   Overcast
1:35 PM 30.2 °F 21.3 °F 25.2 °F 82% 29.74 in 3.0 mi SSE 10.4 mph - N/A Snow Light Snow
1:55 PM 30.6 °F - 26.1 °F 83% 29.73 in 3.0 mi Calm Calm - N/A Snow Light Snow
2:15 PM 30.7 °F 22.0 °F 26.4 °F 84% 29.71 in 2.5 mi SSE 10.4 mph - N/A Snow Light Snow
2:35 PM 31.8 °F 22.8 °F 26.6 °F 81% 29.70 in 5.0 mi South 11.5 mph - N/A   Haze
2:55 PM 32.0 °F 23.0 °F 26.4 °F 80% 29.68 in 10.0 mi South 11.5 mph 16.1 mph N/A   Overcast
3:15 PM 32.4 °F 22.1 °F 26.4 °F 79% 29.67 in 10.0 mi South 15.0 mph 18.4 mph N/A   Mostly Cloudy
3:35 PM 32.5 °F 25.5 °F 26.6 °F 79% 29.66 in 10.0 mi South 8.1 mph 17.3 mph N/A   Overcast
3:55 PM 32.4 °F 22.5 °F 27.0 °F 80% 29.65 in 10.0 mi SSE 13.8 mph 17.3 mph N/A   Overcast
4:15 PM 32.4 °F 26.0 °F 27.3 °F 82% 29.65 in 10.0 mi South 6.9 mph - N/A   Overcast
4:35 PM 32.4 °F 23.0 °F 27.3 °F 82% 29.64 in 10.0 mi South 12.7 mph - N/A   Overcast
4:55 PM 32.0 °F 24.8 °F 27.3 °F 83% 29.62 in 10.0 mi South 8.1 mph - N/A   Overcast
5:55 PM 32.2 °F 27.7 °F 28.0 °F 85% 29.60 in 10.0 mi South 4.6 mph - N/A   Overcast
6:15 PM 32.4 °F 25.3 °F 28.4 °F 85% 29.60 in 10.0 mi South 8.1 mph - N/A   Overcast
6:35 PM 32.0 °F 27.5 °F 28.0 °F 85% 29.60 in 10.0 mi South 4.6 mph - N/A   Overcast
6:55 PM 32.0 °F 26.4 °F 28.4 °F 87% 29.60 in 10.0 mi SSE 5.8 mph - N/A   Overcast
7:15 PM 32.0 °F 26.4 °F 28.4 °F 87% 29.60 in 10.0 mi SSE 5.8 mph - N/A   Overcast
7:35 PM 32.0 °F 24.8 °F 28.4 °F 87% 29.59 in 10.0 mi South 8.1 mph - N/A   Overcast
7:55 PM 32.0 °F 28.7 °F 28.6 °F 87% 29.59 in 10.0 mi SE 3.5 mph - N/A   Overcast
8:15 PM 32.0 °F 27.5 °F 28.9 °F 88% 29.59 in 10.0 mi South 4.6 mph - N/A   Overcast
8:35 PM 32.0 °F 25.6 °F 29.3 °F 90% 29.59 in 7.0 mi SSE 6.9 mph - N/A   Overcast
8:55 PM 32.2 °F 27.7 °F 29.7 °F 90% 29.59 in 5.0 mi South 4.6 mph - N/A   Overcast
9:15 PM 32.4 °F 26.9 °F 30.2 °F 92% 29.59 in 7.0 mi South 5.8 mph - N/A   Overcast
9:35 PM 32.5 °F 29.3 °F 30.2 °F 91% 29.58 in 5.0 mi South 3.5 mph - N/A   Overcast
9:55 PM 32.5 °F 29.3 °F 30.4 °F 92% 29.57 in 10.0 mi SSE 3.5 mph - N/A   Overcast
10:15 PM 32.9 °F 29.8 °F 30.9 °F 92% 29.55 in 7.0 mi South 3.5 mph - N/A   Overcast
10:35 PM 32.9 °F 29.8 °F 30.7 °F 92% 29.55 in 10.0 mi SW 3.5 mph - N/A   Overcast
10:55 PM 32.4 °F 26.9 °F 30.6 °F 93% 29.55 in 7.0 mi SSW 5.8 mph - N/A   Overcast
11:15 PM 34.2 °F 27.5 °F 32.0 °F 92% 29.55 in 10.0 mi WSW 8.1 mph - N/A   Drizzle
11:35 PM 35.6 °F 28.0 °F 30.9 °F 83% 29.55 in 10.0 mi West 10.4 mph - N/A   Overcast
11:55 PM 35.8 °F 29.4 °F 28.9 °F 76% 29.55 in 10.0 mi WSW 8.1 mph 20.7 mph N/A   Mostly Cloudy